RH
96 92 90 83 73 60 64 74 84 87 89 86 83 83 79 77 76 79 82 92 95 99 96 90 90 77 73 86 79 77 90 95 96
94 89 82 71 59 54 65 79 79 85 86 82 77 75 72 67 72 77 74 74 92 95 93 89 82 91 78 82 79 77 93 93 95
90 81 73 64 50 59 73 80 76 79 80 74 62 58 59 69 71 71 73 75 84 94 84 78 82 81 77 84 76 91 95 96 96
90 80 72 57 44 61 78 81 78 79 74 69 64 59 63 66 76 77 71 75 77 76 76 79 86 81 75 84 94 95 96 95 96
86 75 66 56 47 60 77 81 81 78 74 73 68 65 62 72 78 74 72 82 84 78 80 80 80 81 82 78 90 96 96 96 96
86 77 67 58 51 54 78 83 82 81 81 73 69 63 69 77 77 71 83 80 85 90 81 75 93 84 79 79 79 93 96 95 96
86 77 61 68 53 55 82 85 86 86 81 72 69 64 74 74 75 68 82 92 80 85 80 98 80 80 83 76 88 96 92 96 96
88 79 86 85 57 62 86 89 87 86 82 77 70 69 72 78 81 79 83 85 76 85 85 81 84 84 81 79 77 93 96 97 95
92 98 98 87 70 82 84 82 79 85 84 78 72 71 74 74 74 77 79 77 82 74 80 82 82 91 87 92 91 95 95 94 96
99 100 100 98 70 64 81 74 79 82 84 80 73 77 81 81 81 78 77 78 80 78 82 96 78 84 85 96 96 92 92 84 92
99 98 100 95 84 63 68 75 79 79 84 81 79 78 85 85 78 79 86 85 75 85 81 85 80 95 94 92 75 98 93 94 83
92 100 100 92 80 80 82 80 80 81 85 83 83 83 84 83 82 86 92 91 81 80 77 82 82 86 89 92 95 95 94 89 79
91 100 96 88 77 77 73 77 80 98 100 100 91 85 74 65 83 90 90 89 81 80 79 80 89 93 87 84 88 94 90 92 96
87 93 91 87 79 71 67 76 76 92 100 97 95 82 70 68 84 88 81 73 71 70 74 80 82 100 90 88 86 90 89 89 92
86 92 90 86 77 69 62 69 80 79 88 88 87 80 71 69 70 86 78 74 72 66 81 76 81 100 92 90 88 86 93 97 87
84 87 87 80 73 65 62 63 72 79 76 80 81 82 71 62 67 67 77 77 74 72 73 78 78 80 96 91 90 90 96 92 92
79 79 82 77 72 67 62 63 77 69 62 71 74 86 83 79 70 70 74 75 77 74 74 74 78 77 90 93 85 92 87 87 84
74 74 76 79 72 66 63 65 62 63 66 66 66 84 88 78 83 81 76 76 75 80 78 78 72 73 78 89 87 90 86 83 84
74 70 71 76 73 69 64 65 64 67 66 66 61 62 65 86 86 84 82 78 80 83 82 81 80 79 80 82 84 96 90 85 84
78 76 70 74 73 70 70 72 67 68 67 64 67 63 63 67 79 87 91 84 80 81 78 80 80 82 82 84 81 85 92 83 77
Wind_Speed
25 27 30 27 28 25 25 28 28 27 29 30 27 24 23 20 19 18 20 20 19 21 21 21 19 18 18 19 19 18 18 19 20
28 31 28 27 26 24 27 28 28 28 27 26 24 22 21 20 19 18 17 15 17 17 19 19 18 19 18 18 19 18 18 18 20
31 30 28 26 24 29 31 29 28 26 27 25 21 14 12 17 18 15 16 13 15 16 15 16 16 17 18 16 18 16 19 18 20
32 29 28 26 26 30 33 30 27 28 27 23 21 17 16 17 20 20 17 14 15 14 14 15 16 17 17 18 15 17 19 21 21
35 32 30 28 29 33 34 30 28 27 25 24 23 21 17 21 19 19 15 17 16 16 15 17 16 17 19 19 17 21 21 20 20
37 33 30 29 31 34 34 30 26 27 28 26 23 22 22 23 20 18 16 18 17 17 19 17 18 18 19 18 18 21 20 20 20
37 33 31 30 31 35 35 30 28 29 29 25 23 24 23 23 20 18 18 20 17 17 19 22 18 18 18 18 18 19 18 18 19
35 33 32 32 33 35 34 32 31 30 29 26 26 25 24 25 24 21 19 18 17 18 17 17 17 17 17 17 16 18 17 17 19
35 32 33 34 33 36 35 34 31 30 28 29 29 27 26 23 22 21 17 18 18 18 17 17 18 17 17 16 16 15 17 16 17
35 30 33 34 37 37 37 34 32 29 31 29 30 28 26 25 23 23 21 19 17 17 18 18 17 17 17 19 18 17 16 13 16
35 32 35 40 39 39 37 34 33 30 32 31 30 28 27 25 25 25 20 22 19 17 17 15 17 16 19 17 16 19 19 18 15
39 33 39 43 43 39 38 34 31 31 32 31 31 29 26 25 25 23 21 21 22 20 16 14 16 17 15 16 16 15 15 17 17
42 39 40 44 46 41 40 36 31 31 30 30 32 30 25 21 24 27 25 22 18 15 13 15 13 17 17 14 14 15 15 15 16
42 42 42 43 45 39 40 37 34 29 26 28 26 28 25 22 25 27 23 19 17 12 13 15 14 16 16 14 15 15 16 14 15
43 39 43 44 41 40 42 37 36 33 30 27 27 26 25 23 22 20 18 16 13 11 17 17 14 16 17 16 15 15 14 17 16
44 41 42 43 40 46 44 35 38 32 28 26 20 18 20 20 20 19 16 15 13 11 17 17 18 15 16 16 16 15 15 14 14
47 45 42 45 40 39 45 40 29 26 34 21 16 3 5 15 20 21 19 15 15 18 20 18 18 20 16 17 15 16 13 14 14
47 48 45 45 44 43 45 42 39 29 29 36 15 4 4 12 16 20 18 16 18 24 22 19 17 18 16 17 15 16 16 17 15
48 47 49 46 44 44 44 45 41 32 30 32 29 10 13 4 3 16 20 20 22 24 24 22 21 19 18 17 15 18 17 17 15
48 48 48 47 44 45 42 42 40 40 34 33 31 16 21 15 5 4 11 23 25 23 22 23 23 22 21 19 17 17 19 16 14
Wind_Direction
157 151 150 150 142 144 142 137 137 133 127 126 124 125 117 110 107 108 102 95 91 90 87 82 82 82 81 82 81 80 76 74 78
162 159 156 151 147 150 149 145 140 134 130 130 127 122 116 105 98 105 103 111 99 94 91 88 84 88 85 85 84 87 81 81 79
168 162 160 156 154 159 155 150 147 139 140 132 128 128 136 128 123 120 119 112 110 103 94 89 92 90 85 93 87 87 86 87 86
175 172 166 159 156 161 156 155 149 145 142 139 137 144 132 133 130 125 118 118 122 114 107 94 100 95 90 93 88 88 89 83 83
177 172 168 167 163 163 160 159 155 153 147 147 142 132 132 135 132 124 125 120 113 110 107 106 99 97 100 100 84 93 88 86 85
176 175 172 173 169 166 162 161 158 155 146 140 138 131 132 133 129 120 123 129 121 116 110 105 107 103 106 103 93 89 90 86 86
178 174 172 171 168 168 162 162 158 152 147 144 141 134 138 135 132 132 135 119 119 117 117 101 105 100 111 110 96 93 89 83 87
176 171 169 168 166 167 164 160 163 156 153 148 143 136 137 135 135 132 130 125 122 121 120 112 107 106 111 112 111 93 94 93 88
172 171 170 168 171 168 168 166 162 164 159 154 144 139 136 132 131 137 138 128 127 121 122 114 110 110 112 113 110 106 94 92 93
171 171 172 171 172 173 171 169 167 165 163 159 150 144 141 137 135 138 139 136 132 125 124 116 113 111 116 98 109 106 101 107 104
171 171 173 174 174 171 173 172 169 166 162 157 154 149 149 144 141 142 145 133 127 127 125 124 122 107 112 111 113 96 99 100 114
176 173 175 174 174 170 169 167 169 166 162 161 159 157 155 152 153 149 149 142 134 128 124 129 129 130 120 112 110 112 105 108 113
177 175 177 176 174 171 171 170 171 162 160 159 164 163 158 162 160 156 149 147 140 136 132 141 143 138 127 124 123 113 116 116 108
176 176 178 181 179 175 176 173 173 164 158 157 161 159 162 163 160 154 153 150 143 142 138 151 153 140 131 124 127 130 116 118 119
177 176 178 183 181 179 180 179 177 173 155 151 159 159 162 166 168 161 158 158 152 141 148 155 166 128 134 130 128 128 127 124 119
177 176 180 181 182 178 181 178 179 170 158 136 137 157 171 180 187 190 169 165 164 162 157 161 165 157 144 140 135 128 136 127 126
178 177 182 182 181 181 182 180 172 174 175 156 131 128 119 168 187 194 185 187 178 171 163 167 170 174 160 156 144 139 129 138 130
182 179 182 183 182 183 186 185 180 178 171 166 161 137 189 147 179 177 187 188 187 174 170 173 171 168 169 167 161 151 141 140 134
184 183 182 182 182 183 186 188 183 177 175 168 176 164 148 158 164 192 185 187 178 178 180 181 181 178 177 177 172 168 155 149 144
183 182 181 182 181 183 182 183 185 184 181 184 175 157 167 160 140 163 182 189 194 195 197 194 192 190 191 191 186 178 170 157 162